Regional Weather Roundup
Issued by NWS Jackson, KY

Home | Current Version | Previous Version | Graphics & Text | Print | Product List | Glossary On
Versions: 1 2 3 4 5 6 7 8 9 10 11 12 13 14 15 16 17 18 19 20 21 22 23 24 25 26 27 28 29 30 31 32 33 34 35 36 37 38 39 40 41 42 43 44 45 46 47 48 49 50
187
ASUS43 KJKL 281810
RWRJKL

EAST KENTUCKY HOURLY WEATHER ROUNDUP
NATIONAL WEATHER SERVICE JACKSON KY
200 PM EDT THU APR 28 2016

NOTE: "FAIR" INDICATES FEW OR NO CLOUDS BELOW 12,000 FEET WITH
NO SIGNIFICANT WEATHER AND/OR OBSTRUCTIONS TO VISIBILITY.

* THESE REPORTS ARE NOT UNDER NWS QUALITY CONTROL AND MAY NOT
  REPORT WEATHER SUCH AS PRECIPITATION AND FOG.

KYZ079-080-083-085-087-088-110-112-115-119-120-281900
...EASTERN KENTUCKY...

CITY           SKY/WX    TMP DP  RH WIND       PRES   REMARKS
JACKSON        MOSUNNY   76  62  62 W9G16     29.89S
6HR MIN TEMP:  59; 6HR MAX TEMP:  77; 6HR PCP:  0.10;

LONDON         PTSUNNY   76  57  51 W12G21    29.89S
6HR MIN TEMP:  62; 6HR MAX TEMP:  77;

SOMERSET*      MOSUNNY   75  59  57 W10       29.91S
MONTICELLO*    MOSUNNY   78  61  55 W21       29.91F
6HR MIN TEMP:  65; 6HR MAX TEMP:  78;

WILLIAMSBURG*  PTCLDY    77  57  50 W9        29.90S
MIDDLESBORO*   PTSUNNY   78  62  56 S8        29.90F
6HR MIN TEMP:  62; 6HR MAX TEMP:  79;

HARLAN APT*    MOCLDY    77  55  47 S5        29.91S
HAZARD APT*    MOCLDY    77  61  57 SW9       29.88F
BLACK MTN*       N/A     66  59  77 SW6         N/A
PIKE CO APT*     N/A     74  62  65 SW5       29.89S
BIG SANDY APT* MOCLDY    75  64  67 W6        29.88S
6HR MIN TEMP:  60; 6HR MAX TEMP:  75;

MOREHEAD APT*  MOCLDY    75  61  60 SW15G23   29.87S
$$

KYZ035-036-041-042-044-050-067-078-099-281900
...CENTRAL KENTUCKY...

CITY           SKY/WX    TMP DP  RH WIND       PRES   REMARKS
MT STERLING*   PTSUNNY   75  63  64 W12G18    29.88S
FLEMING/MASON* MOSUNNY  N/A N/A N/A W13G21    29.85F
DANVILLE*      PTSUNNY   77  61  57 W12G18    29.88F
RICHMOND*      PTSUNNY   75  59  57 W10G20    29.87F
LEXINGTON      PTSUNNY   73  61  65 W12       29.86S
6HR MIN TEMP:  60; 6HR MAX TEMP:  75;

FRANKFORT      MOSUNNY   77  60  55 SW10      29.84F
6HR MIN TEMP:  62; 6HR MAX TEMP:  77;

LOUISVILLE     PTSUNNY   78  60  53 W13G23    29.84S
6HR MIN TEMP:  63; 6HR MAX TEMP:  79; 6HR PCP: TRACE;

LEBANON*         N/A     77  61  57 SW12G20   29.87S
BOWLING GREEN  MOSUNNY   80  63  55 SW15G21   29.88S
6HR MIN TEMP:  67; 6HR MAX TEMP:  80;

$$

KYZ091>093-OHZ055-061-077-WVZ005-015-034-035-042-281900
...SOUTHERN OHIO/WEST VIRGINIA...

CITY           SKY/WX    TMP DP  RH WIND       PRES   REMARKS
COVINGTON      PTSUNNY   73  62  68 W14G21    29.83S
COLUMBUS       CLOUDY    64  53  67 CALM      29.85S
DAYTON         CLOUDY    61  55  81 W3        29.86S
WILMINGTON     PTSUNNY   70  63  78 SW15      29.81F
HUNTINGTON       N/A     76  61  59 SW8       29.83F
CHARLESTON       N/A     75  58  55 W8        29.84F
PINEVILLE*     LGT RAIN  76  56  49 MISG      29.93F
BECKLEY          N/A     74  56  53 W13G22    29.90F
$$

VAZ002-007-008-TNZ017-027-036-066-071-281900
...SOUTHWEST VIRGINIA/EAST TENNESSEE...

CITY           SKY/WX    TMP DP  RH WIND       PRES   REMARKS
WISE*            N/A     72  52  49 SW17      29.96F
BRISTOL        MOSUNNY   78  62  57 W14       29.92F
MORRISTOWN*    PTCLDY    75  61  60 W13       29.92S
SEVIERVILLE*   CLEAR     81  57  44 W15       29.90F
KNOXVILLE      MOSUNNY   80  58  46 SW16G23   29.91F
OAK RIDGE      SUNNY     80  58  46 SW7G23    29.92F
CROSSVILLE     MOSUNNY   76  54  46 SW10G20   29.96S
NASHVILLE      PTSUNNY   81  56  42 SW13G20   29.90S
$$

...KEY TO REMARKS...
VSB - VISIBILITY IN MILES
WCI - WIND CHILL INDEX
HX  - HEAT INDEX

$$




USA.gov is the U.S. government's official web portal to all federal, state and local government web resources and services.